This demonstration page uses our WeatherBlox Daily Observations layout. Learn more.

Left ArrowRight Arrow

31.31129, -92.44514

Hourly Observations for August 3, 2018

Temp ( °F °C ) Dew Point ( °F °C ) Humidity (%) Winds ( mph kmh ) Pressure ( in mb ) Visibility ( mi km ) Precip ( " mm )
12:53 am 00:53 Clear 74 23.3 65 18.3 74 74 NE 5 7 30.01 1016 10 16 0.00 0.00
1:53 am 01:53 Clear 72 22.2 65 18.3 79 79 E 5 7 30.00 1016 10 16 0.00 0.00
2:53 am 02:53 Clear 71 21.7 66 18.9 84 84 Calm 29.99 1016 10 16 0.00 0.00
3:53 am 03:53 Clear 69 20.6 66 18.9 90 90 Calm 29.99 1016 8 13 0.00 0.00
4:53 am 04:53 Clear with Mist and Fog 67 19.4 66 18.9 97 97 NW 3 6 30.00 1016 6 10 0.00 0.00
5:53 am 05:53 Clear 67 19.4 65 18.3 93 93 Calm 30.01 1016 7 11 0.00 0.00
6:53 am 06:53 Sunny with Mist and Fog 66 18.9 65 18.3 96 96 NW 3 6 30.02 1017 4 6 0.00 0.00
7:53 am 07:53 Sunny 71 21.7 67 19.4 87 87 Calm 30.03 1017 7 11 0.00 0.00
8:53 am 08:53 Sunny 78 25.6 68 20 71 71 Calm 30.05 1018 9 14 0.00 0.00
9:53 am 09:53 Sunny 82 27.8 69 20.6 65 65 Calm 30.06 1018 9 14 0.00 0.00
10:53 am 10:53 Sunny 87 30.6 69 20.6 55 55 VRB 3 6 30.06 1018 10 16 0.00 0.00
11:53 am 11:53 Sunny 89 31.7 69 20.6 52 52 E 6 9 30.06 1018 10 16 0.00 0.00
12:53 pm 12:53 Sunny 91 32.8 64 17.8 41 41 VRB 5 7 30.04 1017 10 16 0.00 0.00
1:53 pm 13:53 Sunny 92 33.3 64 17.8 40 40 VRB 3 6 30.02 1017 7 11 0.00 0.00
2:53 pm 14:53 Partly Cloudy 94 34.4 65 18.3 38 38 VRB 3 6 29.99 1016 10 16 0.00 0.00
3:53 pm 15:53 Mostly Sunny 93 33.9 65 18.3 40 40 NE 7 11 29.98 1015 10 16 0.00 0.00
4:53 pm 16:53 Mostly Cloudy 94 34.4 65 18.3 38 38 N 8 13 29.98 1015 10 16 0.00 0.00
5:29 pm 17:29 Mostly Cloudy with Thunderstorms 89 31.7 68 20 50 50 E 8 13 30.00 1016 8 13 0.00 0.00
5:38 pm 17:38 Mostly Cloudy with Rain 79 26.1 69 20.6 72 72 SSE 17 28 30.00 1016 2 3 0.11 2.79
5:41 pm 17:41 Mostly Cloudy with Strong Thunderstorms 78 25.6 69 20.6 74 74 S 23 37 30.00 1016 1 1 0.26 6.60
5:53 pm 17:53 Cloudy with Strong Thunderstorms 77 25 70 21.1 79 79 S 8 13 29.99 1016 1 1 0.50 12.70
6:00 pm 18:00 Cloudy with Light Rain 78 25.6 69 20.6 74 74 SW 9 15 29.97 1015 1 2 0.05 1.27
6:11 pm 18:11 Cloudy with Light Rain 78 25.6 72 22.2 82 82 W 3 6 29.97 1015 4 6 0.07 1.78
6:53 pm 18:53 Partly Cloudy 82 27.8 72 22.2 72 72 ENE 7 11 29.98 1015 10 16 0.07 1.78
7:02 pm 19:02 Partly Cloudy with Nearby Thunderstorms 82 27.8 71 21.7 69 69 ENE 8 13 29.97 1015 10 16 0.00 0.00
7:20 pm 19:20 Mostly Cloudy with Thunderstorms 83 28.3 70 21.1 65 65 E 12 19 30.00 1016 10 16 0.00 0.00
7:40 pm 19:40 Cloudy with Thunderstorms 76 24.4 68 20 77 77 SSE 21 33 30.03 1017 10 16 0.00 0.00
7:53 pm 19:53 Cloudy with Thunderstorms 73 22.8 68 20 84 84 S 16 26 30.04 1017 10 16 0.00 0.00
8:22 pm 20:22 Mostly Cloudy with Nearby Thunderstorms 73 22.8 66 18.9 79 79 S 14 22 30.03 1017 10 16 0.00 0.00
8:50 pm 20:50 Mostly Clear 72 22 68 20 88 88 SSW 12 19 30.00 1016 10 16 0.00 0.00
8:53 pm 20:53 Mostly Clear 72 22.2 68 20 87 87 SSW 9 15 30.01 1016 10 16 0.00 0.00
9:53 pm 21:53 Clear 72 22.2 69 20.6 91 91 ENE 3 6 30.05 1018 10 16 0.00 0.00
10:53 pm 22:53 Clear 73 22.8 68 20 84 84 E 5 7 30.06 1018 10 16 0.00 0.00
11:53 pm 23:53 Clear 72 22.2 70 21.1 94 94 Calm 30.04 1017 9 14 0.00 0.00

Powered by AerisWeather